Fitchburg, MA

3:36 AM EDT on May 25, 2018 (GMT -0400)
Fitchburg Municipal

Weather History for KFIT - April, 2014

Change the Weather History Date:

Sunday, April 13, 2014

  Actual Average (KORH) Record (KORH)
Temperature  
Mean Temperature 52 °F -  
Max Temperature 64 °F 53 °F 86 °F (1945)
Min Temperature 43 °F 33 °F 18 °F (1926)
Degree Days  
Heating Degree Days 12    
Growing Degree Days 2 (Base 50)    
Moisture  
Dew Point 39 °F    
Average Humidity 68    
Maximum Humidity 80    
Minimum Humidity 50    
Precipitation  
Precipitation 0.01 in - - ()
Sea Level Pressure  
Sea Level Pressure 30.16 in    
Wind  
Wind Speed 2 mph (NNE)    
Max Wind Speed 8 mph    
Max Gust Speed -    
Visibility 10 miles    
Events Rain    
Averages and records for this station are not official NWS values.
T = Trace of Precipitation, MM = Missing Value Source: NWS Daily Summary

Daily Weather History Graph

Daily Weather History Graph

Search for Another Location

Airport or City:

Astronomy

Apr. 13, 2014 Rise Set
Actual Time 6:09 AM EDT 7:26 PM EDT
Civil Twilight 5:40 AM EDT 7:55 PM EDT
Nautical Twilight 5:05 AM EDT 8:30 PM EDT
Astronomical Twilight 4:28 AM EDT 9:08 PM EDT
Moon 6:00 PM EDT (4/13) 5:08 AM EDT (4/13)
Length of Visible Light 14h 15m
Length of Day
13h 17m
Waxing Gibbous, 97% of the Moon is Illuminated
Apr 13
Waxing Gibbous
Apr 15
Full
Apr 22
Last Quarter
Apr 29
New
May 6
First Quarter

Hourly Weather History & Observations

Time (EDT) Temp. Windchill Dew Point Humidity Pressure Visibility Wind Dir Wind Speed Gust Speed Precip Events Conditions
12:52 AM 43.0 °F 41.3 °F 35.1 °F 74% 30.23 in 10.0 mi WNW 3.5 mph - N/A   Clear
1:52 AM 43.0 °F - 35.1 °F 74% 30.23 in 10.0 mi Calm Calm - N/A   Clear
2:52 AM 44.1 °F 42.5 °F 37.0 °F 76% 30.22 in 10.0 mi North 3.5 mph - N/A   Clear
3:52 AM 45.0 °F - 37.9 °F 76% 30.23 in 10.0 mi Calm Calm - N/A   Overcast
4:52 AM 44.1 °F - 37.0 °F 76% 30.22 in 10.0 mi Calm Calm - N/A   Clear
5:52 AM 43.0 °F - 36.0 °F 76% 30.23 in 10.0 mi Calm Calm - N/A   Clear
6:52 AM 43.0 °F - 37.0 °F 80% 30.24 in 10.0 mi Calm Calm - N/A   Overcast
7:52 AM 46.0 °F - 37.9 °F 73% 30.22 in 10.0 mi Calm Calm - N/A   Overcast
8:52 AM 48.0 °F - 37.0 °F 66% 30.25 in 10.0 mi Calm Calm - 0.00 in Rain Light Rain
9:52 AM 46.9 °F - 37.0 °F 68% 30.26 in 10.0 mi Calm Calm - 0.01 in   Overcast
10:52 AM 46.9 °F - 39.0 °F 74% 30.25 in 10.0 mi Calm Calm - 0.00 in   Overcast
11:52 AM 48.0 °F - 41.0 °F 77% 30.22 in 10.0 mi Calm Calm - N/A   Overcast
12:52 PM 51.1 °F - 41.0 °F 68% 30.19 in 10.0 mi NNE 3.5 mph - N/A   Overcast
1:52 PM 55.9 °F - 41.0 °F 57% 30.17 in 10.0 mi NE 6.9 mph - N/A   Overcast
2:52 PM 61.0 °F - 42.1 °F 50% 30.12 in 10.0 mi ENE 6.9 mph - N/A   Clear
3:52 PM 62.1 °F - 43.0 °F 50% 30.07 in 10.0 mi ENE 8.1 mph - N/A   Clear
4:52 PM 61.0 °F - 42.1 °F 50% 30.06 in 10.0 mi NNE 8.1 mph - N/A   Clear
5:52 PM 61.0 °F - 42.1 °F 50% 30.04 in 10.0 mi Variable 5.8 mph - N/A   Clear
6:52 PM 57.9 °F - 41.0 °F 53% 30.04 in 10.0 mi NNE 3.5 mph - N/A   Clear
8:52 PM 51.1 °F - 41.0 °F 68% 30.06 in 10.0 mi Calm Calm - N/A   Clear
9:52 PM 48.9 °F - 41.0 °F 74% 30.06 in 10.0 mi Calm Calm - N/A   Clear
10:52 PM 48.9 °F - 41.0 °F 74% 30.05 in 10.0 mi Calm Calm - N/A   Clear
11:52 PM 46.0 °F - 39.9 °F 79% 30.04 in 10.0 mi Calm Calm - N/A   Clear